Hourly Data Report for September 05, 2017

All times are specified in Local Standard Time (LST). Add 1 hour to adjust for Daylight Saving Time where and when it is observed.

EUREKA CLIMATE
NUNAVUT

79°59'21.000" N
85°56'02.000" W
10.00 m
2401199
71613
NEK

Download Data

Hourly Data (September 2017)
Hourly Data Report for September 5, 2017
Temp Definition
°C
Dew Point Temp Definition
°C
Rel Hum Definition
%
Wind Dir Definition
10's deg

Wind Spd Definition
km/h
Visibility Definition
km
Stn Press Definition
kPa
Hmdx Definition


Wind Chill Definition


Weather Definition


TIME
00:00 -6.0 -7.8 87 32 8   101.32   -10 LegendNANA
01:00 -6.3 -7.5 92 29 29   101.29   -15 LegendNANA
02:00 -6.1 -8.0 87 29 19   101.31   -13 LegendNANA
03:00 -6.2 -7.5 90 29 24   101.32   -14 LegendNANA
04:00 -6.9 -8.9 85 31 17   101.32   -13 LegendNANA
05:00 -5.7 -7.5 87 28 12   101.31   -11 LegendNANA
06:00 -5.5 -7.4 87 27 10   101.30   -10 LegendNANA
07:00 -5.3 -7.8 83 3 2   101.26   -6 LegendNANA
08:00 -4.8 -7.2 83 29 12   101.22   -10 LegendNANA
09:00 -4.8 -7.0 85 27 17   101.18   -11 LegendNANA
10:00 -4.5 -7.0 83 27 14   101.15   -10 LegendNANA
11:00 -4.8 -6.5 88 28 22   101.12   -12 LegendNANA
12:00 -4.7 -5.8 92 28 14   101.09   -10 LegendNANA
13:00 -4.4 -5.8 90 27 8   101.07   -8 LegendNANA
14:00 -4.6 -6.1 89 16 5   101.06   -7 LegendNANA
15:00 -4.8 -6.2 90 13 7   101.04   -8 LegendNANA
16:00 -5.1 -6.2 92 15 8   101.05   -9 LegendNANA
17:00 -5.1 -6.1 93 15 11   101.01   -10 LegendNANA
18:00 -4.9 -6.3 90 14 7   101.00   -8 LegendNANA
19:00 -5.1 -6.0 93 10 6   100.99   -8 LegendNANA
20:00 -5.2 -5.8 95 12 5   100.97   -7 LegendNANA
21:00 -5.3 -5.7 97 12 6   100.94   -8 LegendNANA
22:00 -5.4 -6.0 96 2 6   100.90   -8 LegendNANA
23:00 -5.4 -6.2 94 3 8   100.89   -9 LegendNANA

Notes on Data Quality.

Legend

  • E = Estimated
  • M = Missing
  • NA = Not Available
  • ‡ = Partner data that is not subject to review by the National Climate Archives
Date modified: